Location: Unspecified
(0.0000°N, 0.0000°E)
Time: 12:38:09
(UTC+00:00)

PCSat - Pass Details

Date: 15 December 2017
Orbit: 786 x 794 km, 67.1° (Epoch: 20 January)

Event Time Altitude Azimuth Distance (km) Brightness Sun altitude
Exits shadow 05:22:48 -1° 336° (NNW) 3,350 12.4 -7.4°
Rises 05:23:00 0° 336° (NNW) 3,276 12.3 -7.4°
Reaches altitude 10° 05:25:25 10° 333° (NNW) 2,349 11.6 -6.8°
Maximum altitude 05:30:46 68° 251° (WSW) 848 9.6 -5.6°
Drops below altitude 10° 05:36:08 10° 168° (SSE) 2,354 12.6 -4.4°
Sets 05:38:34 0° 165° (SSE) 3,283 13.4 -3.8°
